Wind_Speed
17 17 16 16 16 15 14 14 13 12 12 12 12 11 11 11 12 12 12 13 13 14 14 15 15 16 17 17 18 18 18 19 19 20 21 21 22 23
18 18 18 18 17 17 16 16 15 15 15 15 14 14 14 14 13 13 14 15 16 17 17 17 18 18 19 20 20 21 21 21 22 23 23 24 25 25
19 19 19 18 18 18 17 17 17 17 17 16 16 16 16 16 16 16 17 18 19 19 20 20 21 21 22 22 23 23 24 24 25 26 26 27 28 29
20 20 20 19 20 19 19 19 18 18 18 18 18 18 18 19 19 20 20 21 21 22 23 23 24 24 25 25 25 26 27 28 28 29 30 31 31 32
21 21 21 21 21 20 20 20 20 20 20 20 20 21 21 22 22 23 23 24 24 25 25 26 27 27 28 28 29 30 31 31 32 33 33 34 35 36
22 22 22 22 22 22 21 22 22 22 22 22 23 23 24 24 25 25 26 26 27 28 29 30 30 31 31 31 32 33 34 35 36 36 37 38 38 39
24 23 23 23 23 24 23 23 24 24 24 24 25 25 26 26 27 28 28 29 30 31 31 32 32 33 33 34 35 36 37 38 38 39 40 40 41 41
25 24 24 24 25 25 25 25 25 25 26 26 27 27 28 29 30 30 31 31 32 33 33 34 36 36 36 37 37 38 39 40 41 42 43 43 44 44
25 25 25 25 26 26 27 28 27 27 27 28 28 28 29 30 31 32 33 34 34 35 36 37 38 38 39 39 41 42 43 43 44 45 46 46 47 47
26 27 27 27 28 29 29 30 30 29 30 30 30 31 31 32 32 33 34 35 36 37 38 38 39 40 41 42 43 44 45 46 47 48 48 49 49 49
27 28 29 29 30 30 31 31 32 31 32 32 33 34 35 35 35 36 37 38 39 40 42 42 42 43 43 45 47 49 49 49 50 50 51 51 51 51
28 29 30 30 31 32 33 33 33 33 33 34 35 36 37 38 39 40 41 42 42 43 44 45 45 46 47 47 49 51 52 52 52 52 52 52 52 53
29 30 31 31 31 32 32 33 34 35 35 36 37 38 40 41 42 43 43 44 45 45 46 47 48 50 51 50 50 51 53 53 53 53 53 54 54 55
30 30 31 32 33 33 34 35 36 37 38 39 40 41 42 43 44 45 46 47 47 48 49 51 51 52 52 52 52 52 52 53 54 54 55 55 56 57
31 32 33 33 34 34 35 36 37 38 39 40 41 42 44 45 45 46 47 49 50 51 52 53 53 54 54 54 54 53 54 54 56 56 57 57 58 58
33 33 34 34 35 35 36 37 38 39 40 42 44 45 46 46 47 48 49 50 51 52 53 53 54 55 55 55 55 55 56 56 56 57 56 57 56 56
34 33 34 35 37 37 38 39 39 40 41 43 44 46 47 47 48 49 50 51 52 52 52 53 55 55 56 56 56 57 57 57 57 56 56 55 54 53
35 35 36 37 38 39 40 40 40 42 43 44 45 46 47 48 49 50 50 51 52 52 52 53 54 55 56 57 57 58 57 56 55 55 55 53 51 50
37 37 38 39 39 40 41 42 43 44 45 46 47 47 48 49 50 51 52 53 53 53 53 54 54 55 55 55 54 56 56 55 55 54 53 51 50 49
37 37 38 39 40 40 41 43 44 45 46 47 48 48 49 50 51 52 52 53 53 53 54 54 55 55 56 55 54 54 54 54 53 51 50 50 48 47
37 37 37 38 40 41 42 42 43 44 46 47 47 48 49 50 51 52 52 52 53 53 52 53 53 54 53 53 52 51 50 51 51 49 48 45 43 41
38 39 39 39 39 41 42 42 43 45 46 47 47 48 49 50 51 51 51 51 52 51 51 52 52 52 51 50 49 49 48 48 47 45 43 40 37 36
38 39 39 39 39 40 41 42 43 44 45 46 47 48 49 49 50 50 50 50 49 49 50 50 50 49 48 48 47 46 45 43 41 40 39 37 35 34
Wind_Direction
236 236 237 238 241 244 247 250 253 258 264 265 268 272 270 271 275 277 281 284 286 289 290 292 293 294 294 295 295 294 293 293 292 292 291 290 290 289
236 237 238 239 241 244 247 251 255 259 263 266 268 270 271 273 275 278 282 285 286 288 290 291 292 291 291 292 293 293 293 292 292 292 291 290 289 289
237 239 240 240 242 244 247 252 257 260 262 265 267 270 272 274 277 280 283 285 286 288 288 289 290 291 292 292 292 292 293 293 293 292 292 291 290 289
241 240 240 241 243 245 249 253 257 260 262 265 268 270 272 274 277 280 283 285 286 287 288 288 288 290 291 291 291 292 292 293 293 293 292 291 290 290
241 241 242 243 246 248 250 254 258 260 262 265 268 271 273 275 277 280 282 284 285 286 286 287 287 288 290 290 290 290 291 291 292 292 291 291 290 290
243 243 244 245 248 250 252 256 259 260 263 265 268 271 274 276 279 281 282 284 287 287 286 287 287 288 289 290 290 290 290 291 291 291 291 291 291 290
244 245 247 249 252 254 255 258 260 262 264 267 269 272 275 277 279 281 282 284 287 288 287 288 288 289 290 290 290 291 291 291 290 290 290 291 291 290
246 248 251 253 257 259 258 259 261 264 266 270 272 274 276 278 280 281 282 284 286 288 290 289 289 290 291 291 291 292 292 292 291 290 290 291 291 290
249 252 254 256 258 260 261 261 263 266 269 271 273 275 277 279 281 283 284 285 286 287 289 290 290 291 292 292 292 292 292 292 291 291 291 291 291 291
254 255 256 258 259 261 264 264 265 268 270 273 275 277 279 281 283 284 285 286 287 288 288 289 290 291 291 292 292 293 293 292 292 292 292 292 292 291
257 258 260 260 261 263 265 268 269 271 273 275 276 277 278 280 282 284 286 286 288 289 289 289 290 290 291 292 292 293 294 294 294 293 293 293 293 292
259 261 261 262 264 265 267 269 270 272 274 277 278 279 279 281 283 284 285 287 288 288 289 290 290 290 291 292 293 293 294 294 294 294 294 294 293 292
261 263 263 264 266 267 269 271 270 271 274 278 279 281 282 282 283 285 286 287 288 289 289 290 290 291 291 292 292 293 294 294 294 294 294 294 293 293
266 266 267 267 268 269 270 272 272 273 276 278 280 281 283 284 285 286 286 287 289 289 290 291 291 292 292 293 293 293 294 294 294 294 293 293 294 294
269 270 270 270 270 270 271 272 273 274 276 278 279 281 283 285 286 286 287 288 289 290 290 290 291 291 291 293 293 293 293 293 293 293 293 293 294 295
270 270 271 271 271 271 272 273 274 276 277 277 278 281 283 285 286 287 287 289 290 290 289 290 290 291 292 292 293 294 294 293 293 293 293 295 295 295
271 272 274 274 273 272 273 273 274 276 279 280 282 283 284 286 287 288 288 289 289 290 290 290 291 292 292 293 293 293 293 294 294 294 294 296 296 297
272 272 273 274 275 275 274 275 276 279 281 282 283 285 286 286 287 287 287 289 290 290 291 290 291 292 293 294 294 294 294 294 294 295 295 296 295 296
274 275 276 276 276 276 277 278 279 280 281 282 284 285 286 287 287 287 288 289 290 290 291 291 292 292 293 293 294 294 295 295 295 295 296 295 295 295
276 278 278 277 278 279 281 282 281 281 283 285 286 286 287 288 288 288 289 290 291 291 292 292 293 293 294 295 295 296 296 296 296 295 295 295 296 296
276 277 278 279 279 280 282 283 282 283 284 285 286 287 288 289 290 290 290 290 291 292 293 293 294 294 295 296 297 297 296 295 295 296 296 296 296 295
279 279 280 280 280 282 282 283 284 285 287 287 287 288 289 290 291 291 290 291 292 293 294 294 294 295 296 296 297 297 297 297 297 297 297 297 296 295
281 281 281 282 282 283 283 284 285 286 287 287 288 289 290 290 291 292 292 293 294 295 295 296 296 297 297 297 297 297 297 297 295 295 296 298 297 298
Height
5876 5878 5879 5881 5882 5883 5884 5885 5886 5886 5886 5886 5886 5886 5886 5886 5886 5886 5885 5885 5884 5883 5882 5882 5881 5880 5878 5877 5876 5874 5873 5872 5870 5869 5867 5866 5865 5863
5873 5875 5876 5877 5879 5880 5881 5882 5882 5883 5883 5883 5883 5883 5883 5883 5882 5882 5882 5881 5880 5880 5879 5878 5877 5875 5874 5873 5871 5870 5868 5867 5865 5863 5862 5860 5859 5857
5869 5871 5872 5874 5875 5876 5877 5878 5878 5879 5879 5879 5879 5879 5879 5879 5879 5879 5878 5877 5876 5875 5874 5873 5872 5870 5869 5867 5866 5864 5863 5861 5859 5857 5856 5854 5852 5850
5865 5867 5868 5869 5871 5872 5873 5874 5874 5875 5875 5875 5875 5875 5875 5875 5875 5874 5873 5872 5871 5870 5869 5868 5866 5865 5863 5862 5860 5858 5856 5855 5853 5851 5848 5846 5844 5842
5860 5862 5863 5865 5866 5867 5868 5869 5870 5870 5871 5871 5871 5871 5871 5870 5870 5869 5868 5867 5866 5865 5863 5861 5860 5858 5857 5855 5853 5851 5849 5847 5845 5843 5840 5838 5836 5833
5856 5857 5859 5860 5861 5862 5863 5864 5865 5865 5865 5866 5866 5865 5865 5864 5864 5863 5862 5861 5859 5858 5856 5854 5853 5851 5849 5847 5845 5843 5841 5838 5836 5833 5831 5828 5825 5823
5850 5852 5854 5855 5856 5857 5858 5859 5859 5860 5860 5860 5860 5859 5859 5858 5857 5856 5855 5854 5852 5850 5849 5847 5845 5843 5840 5838 5836 5834 5831 5829 5826 5823 5820 5817 5814 5812
5845 5846 5848 5849 5850 5851 5852 5852 5853 5853 5853 5853 5853 5853 5852 5851 5850 5849 5848 5847 5845 5843 5841 5839 5836 5834 5831 5829 5826 5824 5821 5818 5815 5812 5809 5806 5803 5800
5839 5840 5842 5843 5844 5844 5845 5845 5846 5846 5846 5846 5846 5845 5844 5843 5842 5841 5840 5838 5836 5834 5832 5830 5827 5825 5822 5819 5816 5813 5810 5807 5803 5800 5797 5794 5790 5787
5833 5834 5835 5836 5837 5837 5838 5838 5838 5838 5838 5838 5838 5837 5836 5835 5833 5832 5831 5829 5827 5824 5822 5821 5818 5814 5812 5808 5805 5801 5798 5794 5791 5787 5784 5780 5777 5774
5826 5827 5828 5828 5829 5829 5830 5830 5830 5830 5830 5829 5829 5828 5827 5825 5824 5823 5821 5819 5817 5814 5811 5809 5807 5804 5801 5797 5793 5789 5785 5781 5778 5774 5770 5766 5762 5759
5819 5819 5820 5820 5821 5821 5822 5822 5822 5822 5821 5820 5819 5818 5817 5816 5814 5812 5810 5808 5805 5804 5800 5796 5794 5791 5789 5786 5781 5776 5771 5767 5763 5759 5755 5751 5747 5744
5811 5811 5812 5812 5813 5813 5813 5813 5813 5812 5812 5811 5810 5809 5807 5805 5803 5800 5798 5796 5793 5791 5788 5784 5781 5777 5774 5772 5768 5763 5758 5753 5749 5745 5740 5736 5732 5728
5804 5804 5804 5804 5804 5804 5804 5804 5803 5802 5802 5801 5800 5798 5796 5793 5791 5788 5786 5783 5780 5778 5774 5771 5767 5764 5760 5756 5753 5749 5744 5739 5734 5730 5726 5721 5717 5712
5796 5796 5796 5795 5795 5795 5795 5794 5794 5793 5791 5790 5788 5786 5784 5781 5779 5776 5773 5770 5767 5764 5760 5756 5753 5749 5745 5741 5738 5734 5730 5725 5719 5715 5710 5705 5700 5696
5788 5787 5786 5786 5785 5785 5785 5784 5783 5782 5780 5779 5777 5774 5772 5769 5766 5763 5760 5757 5753 5750 5745 5742 5738 5734 5730 5726 5722 5718 5713 5709 5704 5699 5694 5689 5684 5679
5778 5777 5777 5776 5776 5775 5774 5773 5772 5770 5768 5766 5764 5762 5759 5756 5753 5750 5747 5743 5739 5736 5732 5727 5723 5718 5714 5710 5706 5702 5697 5692 5688 5683 5678 5674 5668 5663
5769 5768 5767 5766 5765 5764 5763 5761 5760 5758 5756 5754 5752 5749 5746 5743 5740 5737 5733 5729 5725 5721 5717 5713 5708 5704 5700 5695 5690 5685 5680 5676 5671 5666 5662 5658 5654 5648
5759 5758 5757 5755 5754 5752 5751 5750 5748 5746 5743 5741 5739 5736 5733 5730 5726 5723 5719 5715 5711 5706 5702 5698 5693 5689 5685 5681 5675 5668 5664 5660 5655 5651 5646 5642 5639 5635
5748 5747 5745 5743 5742 5741 5739 5738 5736 5733 5731 5728 5725 5722 5719 5715 5712 5708 5704 5700 5696 5691 5687 5682 5678 5673 5669 5665 5661 5655 5648 5644 5640 5636 5632 5628 5624 5620
5737 5736 5734 5732 5731 5729 5727 5725 5723 5720 5718 5715 5712 5708 5705 5701 5697 5693 5689 5685 5681 5676 5672 5668 5662 5658 5653 5648 5644 5640 5634 5628 5624 5621 5617 5614 5611 5608
5726 5725 5723 5721 5719 5717 5715 5713 5710 5707 5704 5701 5698 5695 5691 5687 5683 5679 5674 5670 5666 5662 5657 5653 5648 5643 5638 5634 5629 5625 5621 5615 5610 5606 5603 5601 5598 5596
5715 5713 5711 5709 5707 5705 5702 5700 5697 5694 5691 5688 5684 5680 5677 5673 5668 5664 5660 5656 5652 5648 5643 5639 5634 5629 5624 5619 5615 5611 5607 5603 5599 5595 5592 5589 5587 5584